Enid Vance AFB, OK

9:55 AM CST on December 13, 2017 (GMT -0600)
Vance Air Force Base

Weather History for KEND - April, 2014

Change the Weather History Date:

Friday, April 25, 2014

  Actual Average Record
Temperature  
Mean Temperature 63 °F -  
Max Temperature 82 °F 69 °F 90 °F (2012)
Min Temperature 44 °F 49 °F 35 °F (2013)
Degree Days  
Heating Degree Days 2    
Growing Degree Days 13 (Base 50)    
Moisture  
Dew Point 44 °F    
Average Humidity 51    
Maximum Humidity 93    
Minimum Humidity 25    
Precipitation  
Precipitation 0.00 in - - ()
Sea Level Pressure  
Sea Level Pressure 29.88 in    
Wind  
Wind Speed 13 mph (South)    
Max Wind Speed 28 mph    
Max Gust Speed 34 mph    
Visibility 10 miles    
Events      
Averages and records for this station are not official NWS values.
T = Trace of Precipitation, MM = Missing Value Source: NWS Daily Summary

Daily Weather History Graph

Daily Weather History Graph

Search for Another Location

Airport or City:

Trip Planner

Search our weather history database for the weather conditions in past years. The results will help you decide how hot, cold, wet, or windy it might be!

Date:

Astronomy

Apr. 25, 2014 Rise Set
Actual Time 6:45 AM CDT 8:14 PM CDT
Civil Twilight 6:18 AM CDT 8:41 PM CDT
Nautical Twilight 5:45 AM CDT 9:14 PM CDT
Astronomical Twilight 5:11 AM CDT 9:48 PM CDT
Moon 4:27 AM CDT (4/25) 4:44 PM CDT (4/25)
Length of Visible Light 14h 23m
Length of Day
13h 28m
Waning Crescent, 15% of the Moon is Illuminated
Apr 25
Waning Crescent
Apr 29
New
May 6
First Quarter
May 14
Full
May 21
Last Quarter

Hourly Weather History & Observations

Time (CDT) Temp. Windchill Dew Point Humidity Pressure Visibility Wind Dir Wind Speed Gust Speed Precip Events Conditions
12:58 AM 50.4 °F - 42.3 °F 74% 29.92 in 10.0 mi South 10.4 mph - N/A   Clear
1:58 AM 48.9 °F - 43.3 °F 81% 29.93 in 10.0 mi South 8.1 mph - N/A   Clear
2:58 AM 48.4 °F - 43.9 °F 84% 29.92 in 10.0 mi South 8.1 mph - N/A   Clear
3:55 AM 46.4 °F 43.5 °F 42.8 °F 87% 29.94 in 10.0 mi SSW 5.8 mph - N/A   Clear
4:55 AM 46.4 °F 42.9 °F 42.8 °F 87% 29.94 in 10.0 mi South 6.9 mph - N/A   Clear
5:55 AM 44.6 °F 40.7 °F 42.8 °F 93% 29.93 in 10.0 mi South 6.9 mph - N/A   Clear
6:55 AM 44.6 °F 40.2 °F 42.8 °F 93% 29.96 in 10.0 mi South 8.1 mph - N/A   Partly Cloudy
7:59 AM 51.8 °F - 44.6 °F 76% 29.97 in 10.0 mi South 11.5 mph - N/A   Partly Cloudy
8:55 AM 62.6 °F - 44.6 °F 52% 29.97 in 10.0 mi South 13.8 mph - N/A   Partly Cloudy
9:59 AM 66.2 °F - 44.6 °F 46% 29.97 in 10.0 mi South 17.3 mph - N/A   Partly Cloudy
10:55 AM 69.8 °F - 42.8 °F 38% 29.97 in 10.0 mi South 18.4 mph 27.6 mph N/A   Partly Cloudy
11:55 AM 75.2 °F - 41.0 °F 29% 29.95 in 10.0 mi South 25.3 mph 29.9 mph N/A   Partly Cloudy
12:56 PM 77.9 °F - 41.7 °F 27% 29.92 in 10.0 mi South 25.3 mph 32.2 mph N/A   Partly Cloudy
1:56 PM 80.1 °F - 42.8 °F 27% 29.88 in 10.0 mi South 25.3 mph 34.5 mph N/A   Scattered Clouds
2:56 PM 81.3 °F - 43.0 °F 26% 29.86 in 10.0 mi South 23.0 mph 31.1 mph N/A   Scattered Clouds
3:56 PM 82.4 °F - 42.8 °F 25% 29.85 in 10.0 mi SSE 25.3 mph 32.2 mph N/A   Mostly Cloudy
4:55 PM 82.4 °F - 44.6 °F 26% 29.81 in 10.0 mi South 27.6 mph 31.1 mph N/A   Mostly Cloudy
4:57 PM 80.6 °F - 44.6 °F 28% 29.80 in 10.0 mi South 20.7 mph 31.1 mph N/A   Mostly Cloudy
5:58 PM 81.5 °F - 44.8 °F 27% 29.79 in 10.0 mi South 20.7 mph 31.1 mph N/A   Clear
6:58 PM 79.2 °F - 45.0 °F 30% 29.78 in 10.0 mi South 18.4 mph 29.9 mph N/A   Clear
7:58 PM 74.8 °F - 45.3 °F 35% 29.77 in 10.0 mi SSE 18.4 mph - N/A   Clear
8:58 PM 71.2 °F - 45.9 °F 40% 29.78 in 10.0 mi SE 15.0 mph - N/A   Clear
9:58 PM 67.5 °F - 45.7 °F 46% 29.79 in 10.0 mi SE 12.7 mph - N/A   Clear
10:58 PM 64.9 °F - 45.9 °F 50% 29.78 in 10.0 mi SE 12.7 mph - N/A   Clear
11:58 PM 62.6 °F - 46.4 °F 55% 29.77 in 10.0 mi SE 9.2 mph - N/A   Clear